EW7966 Weather Reports


Display with metric or nautical units.
time (UTC)temp
F
wind
direction
speed
MPH
gust
MPH
rain 1hr
in
rain 24hr
in
rain mn
in
humidity
%
barometer
mb
20260502220008 64 182 4.0 10.0 0.00 0.00 0.00 20 1017.6
20260502220004 64 182 3.0 10.0 0.00 0.00 0.00 20 1013.4
20260502215505 64 250 3.0 10.0 0.00 0.00 0.00 18 1017.7
20260502215005 64 225 6.0 11.0 0.00 0.00 0.00 19 1017.8
20260502214505 64 233 3.0 8.0 0.00 0.00 0.00 18 1017.7
20260502214503 64 233 3.0 8.0 0.00 0.00 0.00 18 1013.6
20260502214006 64 324 1.0 6.0 0.00 0.00 0.00 19 1018.0
20260502213505 63 261 3.0 12.0 0.00 0.00 0.00 17 1018.0
20260502213006 63 279 6.0 12.0 0.00 0.00 0.00 19 1018.2
20260502213003 63 279 6.0 12.0 0.00 0.00 0.00 19 1014.1
20260502212505 63 192 4.0 9.0 0.00 0.00 0.00 18 1018.2
20260502212006 63 217 3.0 8.0 0.00 0.00 0.00 18 1018.4
20260502211509 63 220 2.0 12.0 0.00 0.00 0.00 19 1014.4
20260502211505 63 220 3.0 12.0 0.00 0.00 0.00 19 1018.4
20260502210505 63 162 2.0 10.0 0.00 0.00 0.00 18 1018.6
20260502210028 62 257 4.0 10.0 0.00 0.00 0.00 18 1018.8
20260502205505 62 178 3.0 11.0 0.00 0.00 0.00 17 1018.8
20260502204504 62 274 3.0 11.0 0.00 0.00 0.00 20 1015.0
20260502204005 61 234 3.0 9.0 0.00 0.00 0.00 18 1019.0
20260502203505 61 301 3.0 9.0 0.00 0.00 0.00 17 1019.1
20260502203006 61 265 4.0 11.0 0.00 0.00 0.00 17 1015.3
20260502202006 61 111 5.0 10.0 0.00 0.00 0.00 18 1019.2
20260502201506 61 207 1.0 11.0 0.00 0.00 0.00 18 1015.4
20260502201005 61 129 7.0 11.0 0.00 0.00 0.00 18 1019.2
20260502200505 61 190 3.0 7.0 0.00 0.00 0.00 19 1019.3
20260502200006 61 157 2.0 8.0 0.00 0.00 0.00 20 1019.4
20260502200004 61 157 1.0 8.0 0.00 0.00 0.00 20 1015.7
20260502195505 60 81 0.0 6.0 0.00 0.00 0.00 22 1019.4
20260502195006 60 102 2.0 8.0 0.00 0.00 0.00 22 1019.4
20260502194505 60 44 3.0 8.0 0.00 0.00 0.00 24 1019.5
20260502193504 59 5 3.0 8.0 0.00 0.00 0.00 23 1019.5
20260502193005 59 15 3.0 12.0 0.00 0.00 0.00 22 1019.6
20260502193003 59 15 2.0 12.0 0.00 0.00 0.00 22 1016.0
20260502192505 59 14 4.0 14.0 0.00 0.00 0.00 22 1019.7
20260502191505 59 28 3.0 10.0 0.00 0.00 0.00 21 1016.3
20260502191006 60 321 3.0 11.0 0.00 0.00 0.00 26 1019.9
20260502190505 59 301 4.0 11.0 0.00 0.00 0.00 25 1019.9
20260502190013 58 327 4.0 11.0 0.00 0.00 0.00 23 1016.4
20260502190007 58 327 4.0 11.0 0.00 0.00 0.00 23 1019.9
20260502185500 58 286 7.0 11.0 0.00 0.00 0.00 24 1020.1
20260502185005 58 79 1.0 6.0 0.00 0.00 0.00 25 1020.1
20260502184506 58 29 3.0 6.0 0.00 0.00 0.00 25 1020.1
20260502184503 58 29 2.0 6.0 0.00 0.00 0.00 25 1016.7
20260502183507 58 18 4.0 10.0 0.00 0.00 0.00 22 1020.3
20260502183003 58 323 6.0 8.0 0.00 0.00 0.00 22 1017.0
20260502181506 58 255 4.0 8.0 0.00 0.00 0.00 25 1020.5
20260502181503 58 255 3.0 8.0 0.00 0.00 0.00 25 1017.3
20260502181006 57 329 3.0 12.0 0.00 0.00 0.00 23 1020.5
20260502180506 57 297 7.0 11.0 0.00 0.00 0.00 25 1020.5
20260502170505 55 300 5.0 11.0 0.00 0.00 0.00 23 1021.0
20260502163006 54 299 1.0 5.0 0.00 0.00 0.00 28 1021.1
20260502163003 54 299 1.0 5.0 0.00 0.00 0.00 28 1018.0
20260502162506 54 250 3.0 8.0 0.00 0.00 0.00 29 1021.0
20260502161503 53 278 3.0 12.0 0.00 0.00 0.00 27 1017.9
20260502161006 53 290 8.0 12.0 0.00 0.00 0.00 28 1021.0
20260502160505 53 313 4.0 12.0 0.00 0.00 0.00 30 1021.1
20260502152006 52 249 2.0 9.0 0.00 0.00 0.00 35 1021.2
20260502151503 52 302 3.0 9.0 0.00 0.00 0.00 34 1018.5
20260502151005 51 254 3.0 9.0 0.00 0.00 0.00 33 1021.3
20260502130505 38 205 3.0 5.0 0.00 0.00 0.00 54 1021.1
20260502123505 35 219 3.0 5.0 0.00 0.00 0.00 57 1020.9
20260502123011 35 205 3.0 5.0 0.00 0.00 0.00 58 1018.6
20260502122505 35 213 3.0 5.0 0.00 0.00 0.00 58 1020.7
20260502121505 34 217 3.0 6.0 0.00 0.00 0.00 58 1020.6
20260502121503 34 217 3.0 6.0 0.00 0.00 0.00 58 1018.4
20260502121005 34 198 3.0 5.0 0.00 0.00 0.00 58 1020.6
20260502120505 34 198 3.0 5.0 0.00 0.00 0.00 58 1020.5
20260502115505 34 198 3.0 6.0 0.00 0.00 0.00 57 1020.5
20260502115005 34 198 2.0 6.0 0.00 0.00 0.00 57 1020.5
20260502114506 34 198 3.0 7.0 0.00 0.00 0.00 57 1020.5
20260502114504 34 198 2.0 7.0 0.00 0.00 0.00 57 1018.3
20260502114006 34 198 4.0 7.0 0.00 0.00 0.00 57 1020.5
20260502113504 34 198 3.0 7.0 0.00 0.00 0.00 58 1020.6
20260502113003 34 198 4.0 7.0 0.00 0.00 0.00 57 1018.4
20260502112504 34 198 4.0 6.0 0.00 0.00 0.00 57 1020.5
20260502112006 34 198 3.0 5.0 0.00 0.00 0.00 58 1020.5
20260502111505 34 198 3.0 5.0 0.00 0.00 0.00 58 1020.5
20260502111503 34 198 2.0 5.0 0.00 0.00 0.00 58 1018.3
20260502111005 34 198 2.0 6.0 0.00 0.00 0.00 58 1020.5
20260502110505 34 198 2.0 6.0 0.00 0.00 0.00 59 1020.5
20260502110009 34 198 0.0 5.0 0.00 0.00 0.00 59 1018.3
20260502105005 34 198 2.0 6.0 0.00 0.00 0.00 60 1020.5
20260502104505 34 198 3.0 6.0 0.00 0.00 0.00 59 1020.4
20260502104503 34 198 3.0 6.0 0.00 0.00 0.00 59 1018.4
20260502104005 34 198 3.0 6.0 0.00 0.00 0.00 60 1020.4
20260502103504 34 198 3.0 5.0 0.00 0.00 0.00 60 1020.4
20260502103006 34 198 3.0 6.0 0.00 0.00 0.00 60 1020.4
20260502103003 34 198 2.0 6.0 0.00 0.00 0.00 60 1018.4
20260502102504 34 198 4.0 6.0 0.00 0.00 0.00 60 1020.5
20260502102006 34 198 3.0 6.0 0.00 0.00 0.00 60 1020.5
20260502101503 34 213 3.0 6.0 0.00 0.00 0.00 60 1018.5
20260502101006 34 204 2.0 6.0 0.00 0.00 0.00 60 1020.3
20260502100504 34 204 3.0 5.0 0.00 0.00 0.00 60 1020.3
20260502091503 34 223 1.0 6.0 0.00 0.00 0.00 59 1018.4
20260502091007 35 216 3.0 5.0 0.00 0.00 0.00 58 1020.3
20260502090504 35 216 2.0 6.0 0.00 0.00 0.00 57 1020.2
20260502080104 34 209 0.0 3.0 0.00 0.00 0.00 64 1018.5
20260502071505 35 209 1.0 3.0 0.00 0.00 0.00 62 1020.5
20260502071503 35 209 0.0 3.0 0.00 0.00 0.00 62 1018.7
20260502071006 35 209 1.0 3.0 0.00 0.00 0.00 61 1020.5
20260502070005 35 209 2.0 3.0 0.00 0.00 0.00 61 1020.4
20260502070003 35 209 2.0 3.0 0.00 0.00 0.00 61 1018.6
20260502065505 35 209 1.0 3.0 0.00 0.00 0.00 62 1020.4
20260502065005 35 209 2.0 3.0 0.00 0.00 0.00 61 1020.5
20260502064503 35 209 1.0 4.0 0.00 0.00 0.00 61 1018.7
20260502064005 35 209 1.0 3.0 0.00 0.00 0.00 62 1020.5
20260502063006 35 209 1.0 4.0 0.00 0.00 0.00 63 1020.5
20260502063004 35 209 1.0 4.0 0.00 0.00 0.00 63 1018.7
20260502062505 35 209 1.0 4.0 0.00 0.00 0.00 64 1020.5
20260502062002 35 209 2.0 4.0 0.00 0.00 0.00 63 1020.5
20260502061502 36 209 1.0 3.0 0.00 0.00 0.00 62 1018.7
20260502061005 36 209 1.0 5.0 0.00 0.00 0.00 63 1020.4
20260502060505 36 209 3.0 5.0 0.00 0.00 0.00 62 1020.4
20260502060007 36 214 2.0 4.0 0.00 0.00 0.00 62 1020.5
20260502060004 36 214 1.0 4.0 0.00 0.00 0.00 62 1018.7
20260502055505 36 214 1.0 4.0 0.00 0.00 0.00 62 1020.5
20260502055005 36 214 2.0 4.0 0.00 0.00 0.00 61 1020.5
20260502054507 36 214 1.0 3.0 0.00 0.00 0.00 61 1018.7
20260502054006 36 311 2.0 3.0 0.00 0.00 0.00 59 1020.4
20260502053505 36 311 2.0 3.0 0.00 0.00 0.00 59 1020.4
20260502053005 36 311 2.0 3.0 0.00 0.00 0.00 59 1020.4
20260502052005 35 311 2.0 3.0 0.00 0.00 0.00 64 1020.4
20260502051507 34 311 1.0 2.0 0.00 0.00 0.00 65 1018.6
20260502051006 34 311 0.0 1.0 0.00 0.00 0.00 67 1020.3
20260502050506 34 311 0.0 0.0 0.00 0.00 0.00 67 1020.3
20260502050009 34 311 0.0 0.0 0.00 0.00 0.00 65 1020.3
20260502050005 34 311 0.0 0.0 0.00 0.00 0.00 65 1018.4
20260502045505 35 311 0.0 0.0 0.00 0.00 0.00 64 1020.3
20260502045006 35 311 0.0 0.0 0.00 0.00 0.00 63 1020.3
20260502044506 34 311 0.0 0.0 0.00 0.00 0.00 63 1018.5
20260502044007 34 311 0.0 0.0 0.00 0.00 0.00 64 1020.3
20260502043505 34 311 0.0 0.0 0.00 0.00 0.00 65 1020.3
20260502043006 34 311 0.0 1.0 0.00 0.00 0.00 66 1020.3
20260502043004 34 311 0.0 1.0 0.00 0.00 0.00 66 1018.4
20260502042506 34 311 0.0 1.0 0.00 0.00 0.00 66 1020.3
20260502042005 34 311 0.0 0.0 0.00 0.00 0.00 65 1020.2
20260502041505 35 311 0.0 0.0 0.00 0.00 0.00 64 1020.1
20260502041503 35 311 0.0 0.0 0.00 0.00 0.00 64 1018.2
20260502041006 35 311 0.0 0.0 0.00 0.00 0.00 63 1020.1
20260502040505 35 311 0.0 0.0 0.00 0.00 0.00 62 1020.1
20260502040007 36 311 0.0 0.0 0.00 0.00 0.00 61 1020.1
20260502040005 36 311 0.0 0.0 0.00 0.00 0.00 61 1018.2
20260502035505 36 311 0.0 0.0 0.00 0.00 0.00 60 1020.0
20260502034505 36 311 0.0 0.0 0.00 0.00 0.00 61 1019.8
20260502033505 36 311 0.0 0.0 0.00 0.00 0.00 61 1019.8
20260502033006 37 311 0.0 0.0 0.00 0.00 0.00 62 1019.7
20260502033004 37 311 0.0 0.0 0.00 0.00 0.00 62 1017.7
20260502032505 38 311 0.0 0.0 0.00 0.00 0.00 59 1019.6
20260502032005 38 311 0.0 0.0 0.00 0.00 0.00 58 1019.5
20260502031506 38 311 154.0 655.0 1.34 0.00 0.00 57
20260502031007 38 311 2.0 3.0 0.00 0.00 0.00 57 1019.4
20260502030505 38 311 2.0 3.0 0.00 0.00 0.00 57 1019.3
20260502030005 39 327 1.0 3.0 0.00 0.00 0.00 56 1017.3
20260502025506 39 327 2.0 3.0 0.00 0.00 0.00 55 1019.2
20260502025006 40 327 0.0 1.0 0.00 0.00 0.00 52 1019.1
20260502024511 41 327 0.0 0.0 0.00 0.00 0.00 49 1017.0
20260502024504 41 327 0.0 0.0 0.00 0.00 0.00 49 1019.0
20260502024006 41 327 0.0 0.0 0.00 0.00 0.00 46 1019.0
20260502023506 42 327 0.0 0.0 0.00 0.00 0.00 46 1018.9
20260502023006 43 327 0.0 0.0 0.00 0.00 0.00 48 1018.8
20260502023003 43 327 0.0 0.0 0.00 0.00 0.00 48 1016.9
20260502022505 44 327 0.0 0.0 0.00 0.00 0.00 38 1018.8
20260502022006 44 327 0.0 0.0 0.00 0.00 0.00 39 1018.7
20260502021503 45 327 0.0 0.0 0.00 0.00 0.00 37 1016.7
20260502021006 46 327 0.0 0.0 0.00 0.00 0.00 36 1018.5
20260502020505 47 327 0.0 0.0 0.00 0.00 0.00 38 1018.5
20260502020007 47 327 0.0 0.0 0.00 0.00 0.00 34 1018.4
20260502020004 47 327 0.0 0.0 0.00 0.00 0.00 34 1016.6
20260502015505 48 327 0.0 0.0 0.00 0.00 0.00 33 1018.4
20260502015006 49 327 0.0 0.0 0.00 0.00 0.00 33 1018.4
20260502014505 49 327 0.0 0.0 0.00 0.00 0.00 31 1018.4
20260502014006 50 327 0.0 0.0 0.00 0.00 0.00 31 1018.3
20260502013505 51 327 0.0 1.0 0.00 0.00 0.00 31 1018.3
20260502013003 52 327 0.0 1.0 0.00 0.00 0.00 29 1016.4
20260502012505 52 327 0.0 1.0 0.00 0.00 0.00 28 1018.2
20260502012007 53 327 0.0 1.0 0.00 0.00 0.00 28 1018.2
20260502011505 53 327 0.0 6.0 0.00 0.00 0.00 28 1018.1
20260502010506 54 5 0.0 3.0 0.00 0.00 0.00 27 1018.0
20260502010010 54 5 0.0 3.0 0.00 0.00 0.00 25 1016.4
20260502010007 54 5 1.0 3.0 0.00 0.00 0.00 25 1018.0
20260502005505 53 355 1.0 6.0 0.00 0.01 0.00 25 1018.0
20260502005006 53 19 3.0 6.0 0.00 0.01 0.00 24 1018.0
20260502004505 53 16 2.0 4.0 0.00 0.01 0.00 25 1018.0
20260502004503 53 16 1.0 4.0 0.00 0.01 0.00 25 1016.5
20260502004005 53 336 2.0 9.0 0.00 0.01 0.00 23 1018.0
20260502003505 53 332 4.0 9.0 0.00 0.01 0.00 24 1018.0
20260502003003 54 325 2.0 8.0 0.00 0.01 0.00 26 1016.5
20260502002506 54 334 2.0 5.0 0.00 0.01 0.00 26 1017.9
20260502002007 54 327 2.0 8.0 0.00 0.01 0.00 24 1017.9
20260502001508 53 5 3.0 13.0 0.00 0.01 0.00 27 1018.0
20260502001503 53 5 2.0 13.0 0.00 0.01 0.00 27 1016.7
20260502001006 53 27 8.0 12.0 0.00 0.01 0.00 25 1017.9
20260502000505 53 23 7.0 13.0 0.00 0.01 0.00 24 1017.9
20260502000006 53 49 6.0 11.0 0.00 0.01 0.00 25 1017.8
20260502000003 53 49 5.0 11.0 0.00 0.01 0.00 25 1016.6
20260501235505 53 21 5.0 12.0 0.00 0.01 0.00 26 1017.8
20260501235006 53 19 4.0 9.0 0.00 0.01 0.00 26 1017.8
20260501234505 53 16 5.0 15.0 0.00 0.01 0.00 25 1017.8
20260501234006 53 16 8.0 16.0 0.00 0.01 0.00 27 1017.8
20260501233006 53 5 4.0 13.0 0.00 0.01 0.00 28 1017.9
20260501233004 53 5 3.0 13.0 0.00 0.01 0.00 28 1016.8
20260501232505 53 55 8.0 15.0 0.00 0.01 0.00 26 1017.9
20260501232006 54 11 10.0 15.0 0.00 0.01 0.00 25 1017.9
20260501231505 54 360 4.0 9.0 0.00 0.01 0.00 26 1017.9
20260501231503 54 360 4.0 9.0 0.00 0.01 0.00 26 1016.8
20260501231006 53 325 3.0 12.0 0.00 0.01 0.00 29 1017.8
20260501230004 52 300 5.0 11.0 0.00 0.01 0.00 29 1016.7
20260501225501 52 324 3.0 9.0 0.00 0.01 0.00 30 1017.8
20260501225006 52 338 3.0 6.0 0.00 0.01 0.00 28 1017.9
20260501224506 53 321 3.0 9.0 0.00 0.01 0.00 27 1017.9
20260501224006 54 320 4.0 9.0 0.00 0.01 0.00 28 1017.8
20260501223506 53 347 2.0 9.0 0.00 0.01 0.00 35 1017.8
20260501223006 52 342 4.0 9.0 0.00 0.01 0.00 31 1017.8
20260501223004 52 342 4.0 9.0 0.00 0.01 0.00 31 1016.8
20260501222505 51 316 2.0 8.0 0.00 0.01 0.00 32 1017.8
20260501222005 50 355 3.0 8.0 0.00 0.01 0.00 35 1017.8
20260501221506 50 360 1.0 6.0 0.00 0.01 0.00 35 1017.0
20260501221006 51 355 2.0 9.0 0.00 0.01 0.00 36 1018.0
20260501220505 51 338 5.0 9.0 0.00 0.01 0.00 35 1018.0